Regional Weather Roundup
Issued by NWS

Home | Current Version | Previous Version | Text Only | Print | Product List | Glossary On
Versions: 1 2 3 4 5 6 7 8 9 10 11 12 13 14 15 16 17 18 19 20 21 22 23 24 25 26 27 28
000
ASUS45 KPSR 011810
RWRAZ

ARIZONA HOURLY REGIONAL WEATHER ROUNDUP
NATIONAL WEATHER SERVICE PHOENIX AZ
1100 AM MST SUN MAY 01 2016

NOTE: FAIR INDICATES FEW OR NO CLOUDS BELOW 12,000 FEET WITH NO
SIGNIFICANT WEATHER AND/OR OBSTRUCTIONS TO VISIBILITY.

AZZ001>003-036-011900-
NORTHWEST ARIZONA

CITY           SKY/WX    TMP DP  RH WIND       PRES   REMARKS
BULLHEAD CITY  SUNNY     75  41  29 N20       29.89S
KINGMAN        PTSUNNY   62  41  46 VRB3      29.95R
6HR MIN TEMP:  45; 6HR MAX TEMP:  63;

$$

AZZ004>008-015-016-018-011900-
NORTH CENTRAL ARIZONA

CITY           SKY/WX    TMP DP  RH WIND       PRES   REMARKS
GRAND CANYON   PTSUNNY   45  33  63 NE10      30.03R
6HR MIN TEMP:  38; 6HR MAX TEMP:  46;

WILLIAMS       CLOUDY    43  36  75 NE16      30.08R
PRESCOTT       PTSUNNY   52  40  63 CALM      29.97S
6HR MIN TEMP:  42; 6HR MAX TEMP:  52;

FLAGSTAFF      CLOUDY    36  35  96 SW8       30.00R WCI  30
6HR MIN TEMP:  32; 6HR MAX TEMP:  36; 6HR PCP:  0.17;

PAYSON         CLOUDY    50  43  76 CALM      30.01R
PAGE           LGT RAIN  47  38  71 NE8       30.03R
6HR MIN TEMP:  47; 6HR MAX TEMP:  53; 6HR PCP:  0.02;

$$

AZZ009>014-017-011900-
NORTHEAST ARIZONA

CITY           SKY/WX    TMP DP  RH WIND       PRES   REMARKS
WINSLOW        LGT RAIN  46  42  86 NW6       29.99R
6HR MIN TEMP:  41; 6HR MAX TEMP:  47; 6HR PCP:  0.07;

SAINT JOHNS    PTSUNNY   54  31  41 NW6       29.95S
6HR MIN TEMP:  36; 6HR MAX TEMP:  55; 6HR PCP: TRACE;

WINDOW ROCK    PTSUNNY   48  37  65 VRB7      30.01S
6HR MIN TEMP:  35; 6HR MAX TEMP:  49; 6HR PCP: TRACE;

SHOW LOW       LGT RAIN  39  37  93 SW14      30.02S WCI  31
$$

AZZ023-011900-
GREATER PHOENIX AREA

CITY           SKY/WX    TMP DP  RH WIND       PRES   REMARKS
PHOENIX        PTSUNNY   72  45  37 SE13      29.87S
6HR MIN TEMP:  59; 6HR MAX TEMP:  73; 6HR PCP: TRACE;

BUCKEYE        SUNNY     70  45  40 SE7       29.90R
GLENDALE       MOSUNNY   72  48  43 E7        29.90R
LUKE AFB       SUNNY     72  46  39 SE9       29.87S
6HR MIN TEMP:  55; 6HR MAX TEMP:  72;

DEER VALLEY    MOSUNNY   70  44  39 SE8       29.88S
6HR MIN TEMP:  56; 6HR MAX TEMP:  71;

SCOTTSDALE     PTSUNNY   69  44  40 S9        29.90S
6HR MIN TEMP:  56; 6HR MAX TEMP:  69;

MESA-FALCON    MOSUNNY  N/A N/A N/A S15       29.87S
MESA-GATEWAY   PTSUNNY   68  45  42 SE9       29.91R
CHANDLER       PTSUNNY   70  46  43 SE12      29.90R
$$

AZZ027-028-011900-
SOUTHWEST MARICOPA COUNTY AND PINAL COUNTY

CITY           SKY/WX    TMP DP  RH WIND       PRES   REMARKS
CASA GRANDE    MOSUNNY   66  46  48 E7        29.92S
6HR MIN TEMP:  57; 6HR MAX TEMP:  66;

GILA BEND      FAIR      70  46  41 VRB5      29.87S
6HR MIN TEMP:  55; 6HR MAX TEMP:  71;

$$

AZZ503-504-507>509-011900-
SOUTHEAST ARIZONA

CITY           SKY/WX    TMP DP  RH WIND       PRES   REMARKS
TUCSON         CLOUDY    66  36  32 CALM      29.93S
6HR MIN TEMP:  54; 6HR MAX TEMP:  68;

DAVIS-MONTHAN  CLOUDY    65  37  35 N3        29.91S
6HR MIN TEMP:  51; 6HR MAX TEMP:  66;

RYAN FIELD     SUNNY     70  36  28 SE3       29.92S
NOGALES        PTSUNNY   67  33  28 SW8       29.94S
6HR MIN TEMP:  47; 6HR MAX TEMP:  67;

SIERRA VISTA   MOSUNNY   65  23  20 S14       29.96F
6HR MIN TEMP:  49; 6HR MAX TEMP:  65;

DOUGLAS        MOSUNNY   67  30  25 VRB6G21   29.95S
6HR MIN TEMP:  42; 6HR MAX TEMP:  67;

SAFFORD        CLOUDY    67  31  26 SE14G20   29.90S
6HR MIN TEMP:  47; 6HR MAX TEMP:  68;

$$

AZZ020-021-025-026-031-011900-
SOUTHWEST ARIZONA

CITY           SKY/WX    TMP DP  RH WIND       PRES   REMARKS
YUMA           SUNNY     77  44  30 NE7       29.86R
6HR MIN TEMP:  59; 6HR MAX TEMP:  77;

$$

CAZ031-033-041-043-047-048-061-011900-
SOUTHERN CALIFORNIA

CITY           SKY/WX    TMP DP  RH WIND       PRES   REMARKS
DOWNTOWN L.A.  PTSUNNY   67  51  56 S3        29.92S
6HR MIN TEMP:  58; 6HR MAX TEMP:  68;

L.A. AIRPORT   MOSUNNY   65  54  67 SW9       29.93S
6HR MIN TEMP:  55; 6HR MAX TEMP:  67;

SAN DIEGO      CLOUDY    65  50  58 S8        29.96R
6HR MIN TEMP:  59; 6HR MAX TEMP:  65;

BURBANK        SUNNY     65  48  54 VRB3      29.92S
6HR MIN TEMP:  54; 6HR MAX TEMP:  66;

ONTARIO        MOSUNNY   65  46  50 VRB5      29.92F
6HR MIN TEMP:  50; 6HR MAX TEMP:  66;

RIVERSIDE      SUNNY     66  47  50 VRB3      29.92F
6HR MIN TEMP:  51; 6HR MAX TEMP:  67;

PALM SPRINGS   MOSUNNY   80  41  24 CALM      29.86S
6HR MIN TEMP:  59; 6HR MAX TEMP:  81;

EL CENTRO NAS  SUNNY    N/A N/A N/A VRB6      29.86R
IMPERIAL       SUNNY     80  44  27 NE8       29.84R
6HR MIN TEMP:  59; 6HR MAX TEMP:  80;

BLYTHE         SUNNY     75  44  33 NE6       29.87R
6HR MIN TEMP:  55; 6HR MAX TEMP:  76;

NEEDLES        SUNNY     76  42  29 N5        29.87S
6HR MIN TEMP:  59; 6HR MAX TEMP:  77;

$$

NVZ020-UTZ003-011900-
SOUTHERN NEVADA-UTAH

CITY           SKY/WX    TMP DP  RH WIND       PRES   REMARKS
LAS VEGAS      MOSUNNY   69  41  36 E9        29.89R
6HR MIN TEMP:  54; 6HR MAX TEMP:  69;

SALT LAKE CITY PTSUNNY   58  22  24 NE21G29   30.06S
6HR MIN TEMP:  48; 6HR MAX TEMP:  59;

$$

NMZ009-TXZ055-011900-
NEW MEXICO-WEST TEXAS

CITY           SKY/WX    TMP DP  RH WIND       PRES   REMARKS
ALBUQUERQUE    LGT RAIN  45  31  58 E32G41    30.10R
6HR MIN TEMP:  41; 6HR MAX TEMP:  48; 6HR PCP: TRACE;

EL PASO        MOSUNNY   64  35  34 E15G25    30.02F
6HR MIN TEMP:  51; 6HR MAX TEMP:  64;

$$


........................KEY........................
SKY/WX - SKY CONDITION/WEATHER
TMP    - TEMPERATURE IN FAHRENHEIT
DP     - DEW POINT IN FAHRENHEIT
RH     - RELATIVE HUMIDITY IN PERCENT
WIND   - DIRECTION AND SPEED IN MILES PER HOUR (MPH)
VRB    - VARIABLE WIND DIRECTION
PRES   - MEAN SEA LEVEL PRESSURE IN INCHES OF MERCURY
         F - FALLING PRESSURE   R - RISING PRESSURE
         S - STEADY PRESSURE
VSB    - VISIBILITY IN MILES
HX     - HEAT INDEX IN FAHRENHEIT
WCI    - WIND CHILL INDEX IN FAHRENHEIT
TC     - TEMPERATURE IN CELSIUS WHICH IS ALSO KNOWN AS
         TEMPERATURE IN CENTIGRADE
AFB    - AIR FORCE BASE
         LUKE AFB IS LUKE AIR FORCE BASE
         DAVIS-MONTHAN IS DAVIS-MONTHAN AIR FORCE BASE
NAS    - NAVAL AIR STATION
         EL CENTRO NAS IS EL CENTRO NAVAL AIR STATION
N/A    - NOT AVAILABLE





USA.gov is the U.S. government's official web portal to all federal, state and local government web resources and services.